Date String (YYYY-MM-DD hh:mm:ss) UTC,Instrument flags,Ambient pressure (hPa),Sample flow (lpm),Bypass flow (lpm),Sample temperature (°C),Ambient temperature (°C),ASC tube jacket temperature (°C),LED temperature (°C),Box temperature (°C),Sample RH (%),Span deviation,Mass concentration (μg/m³),Mass concentration (μg/m³),Mass concentration (μg/m³)
DateTimeUTC,F1_M11,P_M11,Q1_M11,Q2_M11,T1_M11,T2_M11,T3_M11,T4_M11,T5_M11,U1_M11,ZSPAN_M11,X0_M11,X2_M11,X1_M11
2022-02-08 02:00:00,,0828.3,4.98,0.00,27.2,26.4,00.0,36.2,28.9,05.1,0000.0,0001.70,0000.62,0000.46
2022-02-08 02:01:00,,0828.3,5.01,0.00,27.2,26.4,00.0,36.2,28.9,05.2,0000.0,0001.70,0000.62,0000.46
2022-02-08 02:02:00,,0828.4,5.00,0.00,27.2,26.4,00.0,36.2,28.9,05.3,0000.0,0001.66,0000.61,0000.45
2022-02-08 02:03:00,,0828.4,5.00,0.00,27.2,26.4,00.0,36.2,28.9,05.3,0000.0,0001.52,0000.60,0000.44
2022-02-08 02:04:00,,0828.4,4.99,0.00,27.1,26.3,00.0,36.2,28.8,05.2,0000.0,0000.93,0000.59,0000.44
2022-02-08 02:05:00,,0828.4,5.01,0.00,27.1,26.3,00.0,36.2,28.8,05.2,0000.0,0000.87,0000.57,0000.44
2022-02-08 02:06:00,,0828.4,5.00,0.00,27.1,26.4,00.0,36.2,28.8,05.2,0000.0,0000.83,0000.55,0000.43
2022-02-08 02:07:00,,0828.3,5.00,0.00,27.1,26.3,00.0,36.2,28.9,05.2,0000.0,0000.87,0000.56,0000.43
2022-02-08 02:08:00,,0828.3,5.02,0.00,27.1,26.3,00.0,36.2,28.9,05.2,0000.0,0000.94,0000.59,0000.44
2022-02-08 02:09:00,,0828.3,4.99,0.00,27.1,26.3,00.0,36.2,28.9,05.3,0000.0,0000.97,0000.60,0000.44
2022-02-08 02:10:00,,0828.4,5.00,0.00,27.1,26.3,00.0,36.2,28.9,05.3,0000.0,0000.97,0000.58,0000.44
2022-02-08 02:11:00,,0828.3,4.99,0.00,27.1,26.3,00.0,36.1,28.8,05.2,0000.0,0000.88,0000.54,0000.44
2022-02-08 02:12:00,,0828.3,5.01,0.00,27.1,26.2,00.0,36.1,28.8,05.2,0000.0,0000.97,0000.58,0000.45
2022-02-08 02:13:00,,0828.4,5.01,0.00,27.0,26.2,00.0,36.1,28.8,05.3,0000.0,0001.07,0000.59,0000.45
2022-02-08 02:14:00,,0828.8,4.99,0.00,27.0,26.2,00.0,36.1,28.7,05.3,0000.0,0001.11,0000.60,0000.45
2022-02-08 02:15:00,,0829.1,5.00,0.00,27.0,26.2,00.0,36.1,28.8,05.4,0000.0,0001.11,0000.60,0000.45
2022-02-08 02:16:00,,0828.7,5.01,0.00,27.0,26.2,00.0,36.1,28.8,05.5,0000.0,0001.11,0000.60,0000.45
2022-02-08 02:17:00,,0828.3,5.00,0.00,27.0,26.3,00.0,36.1,28.8,05.5,0000.0,0001.12,0000.61,0000.45
2022-02-08 02:18:00,,0828.1,5.00,0.00,27.0,26.3,00.0,36.1,28.8,05.5,0000.0,0001.13,0000.62,0000.45
2022-02-08 02:19:00,,0828.2,4.99,0.00,27.0,26.3,00.0,36.1,28.7,05.3,0000.0,0001.11,0000.62,0000.45
2022-02-08 02:20:00,,0828.2,5.00,0.00,27.0,26.2,00.0,36.1,28.7,05.5,0000.0,0001.10,0000.62,0000.45
2022-02-08 02:21:00,,0828.3,5.00,0.00,27.0,26.2,00.0,36.1,28.7,05.6,0000.0,0001.05,0000.63,0000.46
2022-02-08 02:22:00,,0828.4,4.99,0.00,27.0,26.2,00.0,36.0,28.7,05.6,0000.0,0001.03,0000.63,0000.47
2022-02-08 02:23:00,,0828.4,5.00,0.00,27.0,26.2,00.0,36.0,28.7,05.8,0000.0,0001.05,0000.64,0000.48
2022-02-08 02:24:00,,0828.2,5.00,0.00,27.0,26.2,00.0,36.0,28.7,05.7,0000.0,0001.10,0000.71,0000.51
2022-02-08 02:25:00,,0828.2,5.02,0.00,27.0,26.2,00.0,36.0,28.7,05.5,0000.0,0001.10,0000.72,0000.53
2022-02-08 02:26:00,,0828.3,4.99,0.00,26.9,26.2,00.0,36.0,28.7,05.5,0000.0,0001.17,0000.76,0000.54
2022-02-08 02:27:00,,0828.2,4.99,0.00,26.9,26.2,00.0,36.0,28.7,05.5,0000.0,0001.21,0000.78,0000.56
2022-02-08 02:28:00,,0828.1,5.02,0.00,26.9,26.2,00.0,36.0,28.7,05.5,0000.0,0001.24,0000.79,0000.57
2022-02-08 02:29:00,,0828.2,5.00,0.00,26.9,26.1,00.0,36.0,28.6,05.6,0000.0,0001.28,0000.81,0000.59
2022-02-08 02:30:00,,0828.2,4.99,0.00,26.9,26.1,00.0,36.0,28.6,05.5,0000.0,0001.28,0000.81,0000.60
2022-02-08 02:31:00,,0828.3,5.00,0.00,26.9,26.1,00.0,36.0,28.6,05.5,0000.0,0001.26,0000.80,0000.60
2022-02-08 02:32:00,,0828.1,5.01,0.00,26.9,26.1,00.0,36.0,28.6,05.5,0000.0,0001.24,0000.79,0000.59
2022-02-08 02:33:00,,0828.1,5.00,0.00,26.8,26.0,00.0,35.9,28.5,05.5,0000.0,0001.35,0000.82,0000.60
2022-02-08 02:34:00,,0828.1,5.00,0.00,26.8,25.9,00.0,35.9,28.4,05.5,0000.0,0001.36,0000.82,0000.60
2022-02-08 02:35:00,,0828.2,5.01,0.00,26.7,25.8,00.0,35.9,28.3,05.6,0000.0,0001.27,0000.78,0000.59
2022-02-08 02:36:00,,0828.1,4.99,0.00,26.7,25.8,00.0,35.9,28.3,05.7,0000.0,0001.23,0000.76,0000.59
2022-02-08 02:37:00,,0828.0,5.01,0.00,26.7,25.8,00.0,35.9,28.3,05.8,0000.0,0001.18,0000.76,0000.60
2022-02-08 02:38:00,,0828.0,4.99,0.00,26.7,25.8,00.0,35.8,28.3,05.5,0000.0,0001.16,0000.75,0000.60
2022-02-08 02:39:00,,0828.0,5.01,0.00,26.7,25.8,00.0,35.8,28.3,05.4,0000.0,0001.13,0000.74,0000.59
2022-02-08 02:40:00,,0828.0,5.01,0.00,26.6,25.8,00.0,35.8,28.3,05.5,0000.0,0001.07,0000.72,0000.58
2022-02-08 02:41:00,,0827.9,4.99,0.00,26.6,25.7,00.0,35.8,28.3,05.3,0000.0,0001.05,0000.72,0000.59
2022-02-08 02:42:00,,0827.9,5.02,0.00,26.6,25.7,00.0,35.8,28.3,05.3,0000.0,0001.08,0000.71,0000.58
2022-02-08 02:43:00,,0827.9,5.00,0.00,26.6,25.7,00.0,35.7,28.3,05.5,0000.0,0001.42,0000.72,0000.58
2022-02-08 02:44:00,,0828.0,4.99,0.00,26.6,25.7,00.0,35.7,28.3,05.4,0000.0,0001.60,0000.69,0000.58
2022-02-08 02:45:00,,0827.9,4.99,0.00,26.6,25.7,00.0,35.7,28.3,05.5,0000.0,0001.52,0000.65,0000.57
2022-02-08 02:46:00,,0828.0,5.01,0.00,26.6,25.7,00.0,35.7,28.3,05.4,0000.0,0001.47,0000.63,0000.56
2022-02-08 02:47:00,,0827.9,5.01,0.00,26.5,25.7,00.0,35.7,28.3,05.4,0000.0,0001.46,0000.62,0000.55
2022-02-08 02:48:00,,0827.8,4.99,0.00,26.5,25.7,00.0,35.7,28.2,05.4,0000.0,0001.45,0000.60,0000.53
2022-02-08 02:49:00,,0828.0,4.99,0.00,26.5,25.7,00.0,35.7,28.2,05.3,0000.0,0001.45,0000.59,0000.51
2022-02-08 02:50:00,,0828.0,5.01,0.00,26.5,25.6,00.0,35.6,28.2,05.6,0000.0,0001.66,0000.59,0000.51
2022-02-08 02:51:00,,0827.9,5.01,0.00,26.5,25.6,00.0,35.6,28.2,05.5,0000.0,0001.88,0000.59,0000.50
2022-02-08 02:52:00,,0827.9,5.00,0.00,26.5,25.6,00.0,35.6,28.2,05.5,0000.0,0001.85,0000.57,0000.48
2022-02-08 02:53:00,,0827.9,4.99,0.00,26.5,25.7,00.0,35.6,28.2,05.4,0000.0,0001.81,0000.56,0000.48
2022-02-08 02:54:00,,0827.9,4.99,0.00,26.5,25.7,00.0,35.6,28.2,05.4,0000.0,0001.52,0000.54,0000.47
2022-02-08 02:55:00,,0827.8,4.99,0.00,26.5,25.7,00.0,35.6,28.2,05.4,0000.0,0001.14,0000.53,0000.46
2022-02-08 02:56:00,,0827.9,5.02,0.00,26.4,25.7,00.0,35.6,28.2,05.4,0000.0,0001.18,0000.54,0000.45
2022-02-08 02:57:00,,0827.9,5.00,0.00,26.4,25.7,00.0,35.5,28.2,05.3,0000.0,0001.15,0000.53,0000.44
2022-02-08 02:58:00,,0827.9,5.00,0.00,26.4,25.7,00.0,35.5,28.2,05.3,0000.0,0001.18,0000.54,0000.44
2022-02-08 02:59:00,,0827.9,4.99,0.00,26.4,25.7,00.0,35.5,28.2,05.4,0000.0,0001.34,0000.56,0000.44
